Home   Weather   Zug   Past weeks

Flag for Switzerland Past Weather in Zug, Zug, Switzerland — Yesterday and Last 2 Weeks

Now
54 °F

Cool.


Feels Like: 53 °F
Forecast: 38 / 49 °F
Wind: 6 mph from South

Location: Zuerich-Fluntern

Current Time: Feb 27, 2017 at 7:39:39 pm

Latest Report: Feb 27, 2017 at 6:00 pm


Visibility: N/A

Pressure: 29.59 "Hg

Humidity: 41%

Dew Point: 31 °F

Location of ZugLocation

Past Weather in Zug — Graph

°F

Zug Temperature Yesterday

Maximum temperature yesterday: 51 °F (at 4:00 pm)
Minimum temperature yesterday: 34 °F (at 7:00 am)
Average temperature yesterday: 41 °F

High & Low Weather Summary for the Past Weeks

 TemperatureHumidityPressure
High66 °F (Feb 23, 3:00 pm)100% (Feb 17, 9:00 pm)30.65 "Hg (Feb 17, 9:00 pm)
Low29 °F (Feb 14, 8:00 am)17% (Feb 23, 4:00 pm)29.59 "Hg (Feb 23, 5:00 pm)
Average41 °F75%30.23 "Hg
* Reported Feb 12 6:00 pm — Feb 27 6:00 pm, Zug, Weather by CustomWeather, © 2017

Note: Actual official high and low records may vary slightly from our data, if they occured in-between our weather recording intervals... More about our weather records

Advertising

Zug Weather History for the Previous 24 Hours

Scroll right to see more
 ConditionsComfort  
Time TempWeatherWind HumidityBarometerVisibility
6:00 pm
Mon, Feb 27
54 °FCool.6 mph41%29.59 "HgN/A
5:00 pm57 °FRefreshingly cool.3 mph38%29.61 "HgN/A
4:00 pm58 °FRefreshingly cool.5 mph38%29.62 "HgN/A
3:00 pm56 °FRefreshingly cool.5 mph37%29.66 "HgN/A
2:00 pm56 °FRefreshingly cool.5 mph41%29.70 "HgN/A
1:00 pm52 °FScattered clouds.6 mph45%29.75 "HgN/A
12:00 pm50 °FCool.2 mph50%29.79 "HgN/A
11:00 am46 °FCool.2 mph60%29.83 "HgN/A
10:00 am41 °FQuite cool.1 mph66%29.88 "HgN/A
9:00 am40 °FQuite cool.1 mph68%29.90 "HgN/A
8:00 am37 °FChilly.1 mph74%29.93 "HgN/A
7:00 am36 °FChilly.No wind78%29.95 "HgN/A
6:00 am36 °FChilly.1 mph76%29.96 "HgN/A
5:00 am37 °FChilly.No wind75%29.97 "HgN/A
4:00 am36 °FChilly.No wind78%29.99 "HgN/A
3:00 am37 °FChilly.No wind78%30.00 "HgN/A
2:00 am38 °FChilly.No wind75%30.02 "HgN/A
1:00 am38 °FChilly.No wind74%30.03 "HgN/A
12:00 am39 °FChilly.1 mph72%30.04 "HgN/A
11:00 pm
Sun, Feb 26
41 °FQuite cool.No wind69%30.05 "HgN/A
10:00 pm41 °FQuite cool.1 mph68%30.06 "HgN/A
9:00 pm42 °FQuite cool.1 mph65%30.05 "HgN/A
8:00 pm44 °FQuite cool.1 mph60%30.05 "HgN/A
7:00 pm45 °FPassing clouds.1 mph56%30.04 "HgN/A
Weather by CustomWeather, © 2017

See weather overviewHow to use our weather pages